DW8248 Weather Reports


time (UTC)temp
F
wind
direction
speed
knots
gust
knots
rain 1hr
in
rain 24hr
in
rain mn
in
humidity
%
barometer
mb
20260905182734 89 189 2.6 19.1 0.08 0.08 0.08 62 1012.2
20260905181743 87 68 12.2 19.1 0.94 0.04 0.06 68 1012.5
20260905180801 91 284 5.2 8.7 0.00 0.00 0.00 63 1012.4
20260905175727 91 298 4.3 7.0 0.00 0.00 0.00 63 1012.5
20260905173545 91 241 0.9 4.3 0.00 0.00 0.00 64 1012.6
20260905172509 91 275 0.9 1.7 0.00 0.00 0.00 66 1012.8
20260905171444 90 267 1.7 8.7 0.00 0.00 0.00 67 1013.1
20260905170421 90 238 5.2 8.7 0.00 0.00 0.00 68 1013.2
20260905165406 90 232 5.2 8.7 0.00 0.00 0.00 66 1013.3
20260905164401 90 199 5.2 8.7 0.00 0.00 0.00 67 1013.5
20260905163340 89 226 5.2 8.7 0.00 0.00 0.00 67 1013.6
20260905162358 89 277 5.2 7.8 0.00 0.00 0.00 69 1013.7
20260905161327 89 209 3.5 7.0 0.00 0.00 0.00 70 1014.0
20260905160332 88 244 3.5 7.8 0.00 0.00 0.00 68 1014.0
20260905152955 88 246 7.0 10.4 0.00 0.00 0.00 71 1014.5
20260905152004 87 223 6.1 10.4 0.00 0.00 0.00 71 1014.5
20260905150945 87 234 7.8 10.4 0.00 0.00 0.00 71 1014.3
20260905150006 87 231 7.0 12.2 0.00 0.00 0.00 74 1014.3
20260905144946 86 223 8.7 12.2 0.00 0.00 0.00 74 1014.3
20260905144001 86 217 7.8 10.4 0.00 0.00 0.00 76 1014.4
20260905142934 86 242 7.8 10.4 0.00 0.00 0.00 75 1014.3
20260905141951 86 213 7.8 10.4 0.00 0.00 0.00 77 1014.4
20260905140934 85 202 6.1 9.6 0.00 0.00 0.00 77 1014.3
20260905135905 85 205 6.1 7.8 0.00 0.00 0.00 77 1014.4
20260905134849 85 221 4.3 7.0 0.00 0.00 0.00 80 1014.4
20260905133817 84 210 5.2 7.8 0.00 0.00 0.00 80 1014.5
20260905132748 84 224 6.1 9.6 0.00 0.00 0.00 81 1014.6
20260905131809 84 221 6.1 9.6 0.00 0.00 0.00 81 1014.5
20260905124524 82 241 4.3 6.1 0.00 0.00 0.00 85 1014.3
20260905123518 82 215 4.3 5.2 0.00 0.00 0.00 86 1014.3
20260905122444 82 208 3.5 5.2 0.00 0.00 0.00 86 1014.4
20260905120330 82 236 2.6 4.3 0.00 0.00 0.00 86 1014.4
20260905114201 82 229 4.3 6.1 0.00 0.00 0.00 86 1014.0
20260905112010 81 211 5.2 6.1 0.00 0.00 0.00 85 1013.7
20260905110945 82 215 5.2 7.0 0.00 0.00 0.00 85 1013.5
20260905110006 82 219 5.2 7.0 0.00 0.00 0.00 85 1013.4
20260905105016 82 213 3.5 5.2 0.00 0.00 0.00 84 1013.4
20260905104032 82 223 2.6 4.3 0.00 0.00 0.00 84 1013.5
20260905102958 82 223 3.5 5.2 0.00 0.00 0.00 83 1013.4
20260905100853 82 211 3.5 5.2 0.00 0.00 0.00 83 1013.3
20260905095840 83 194 3.5 5.2 0.00 0.00 0.00 82 1013.4
20260905094836 83 193 4.3 7.8 0.00 0.00 0.00 83 1013.5
20260905093816 83 205 6.1 7.8 0.00 0.00 0.00 82 1013.4
20260905092819 83 188 4.3 7.0 0.00 0.00 0.00 82 1013.4
20260905091748 83 192 5.2 8.7 0.00 0.00 0.00 82 1013.3
20260905090720 83 0 4.3 7.8 0.00 0.00 0.00 82 1013.4
20260905084603 83 196 5.2 8.7 0.00 0.00 0.00 82 1013.2
20260905083529 83 205 6.1 8.7 0.00 0.00 0.00 82 1013.2
20260905082504 83 190 5.2 7.0 0.00 0.00 0.00 82 1013.3
20260905081435 83 202 5.2 7.0 0.00 0.00 0.00 82 1013.3
20260905080456 83 180 3.5 6.1 0.00 0.00 0.00 82 1013.4
20260905075459 83 196 4.3 6.1 0.00 0.00 0.00 82 1013.4
20260905073350 83 209 3.5 6.1 0.00 0.00 0.00 81 1013.4
20260905071306 83 209 6.1 7.8 0.00 0.00 0.00 81 1013.4
20260905070308 84 187 6.1 8.7 0.00 0.00 0.00 81 1013.3
20260905065234 84 211 7.0 8.7 0.00 0.00 0.00 80 1013.5
20260905064247 84 197 7.0 8.7 0.00 0.00 0.00 81 1013.6
20260905063236 84 201 7.8 10.4 0.00 0.00 0.00 80 1013.6
20260905061052 85 183 7.0 10.4 0.00 0.00 0.00 80 1013.8
20260905060037 85 155 6.1 10.4 0.00 0.00 0.00 79 1013.8
20260905055044 85 156 6.1 8.7 0.00 0.00 0.00 79 1014.0
20260905052942 85 157 6.1 9.6 0.00 0.00 0.00 79 1014.4
20260905051908 85 175 7.0 9.6 0.00 0.00 0.00 79 1014.4
20260905045725 85 194 5.2 7.8 0.00 0.00 0.00 79 1014.7
20260905044745 85 189 5.2 7.8 0.00 0.00 0.00 79 1014.8
20260905043802 85 194 3.5 7.8 0.00 0.00 0.00 79 1014.9
20260905042757 85 191 1.7 4.3 0.00 0.00 0.00 81 1015.0
20260905041802 85 201 1.7 4.3 0.00 0.00 0.00 81 1015.0
20260905040821 84 218 1.7 4.3 0.00 0.00 0.00 81 1015.2
20260905035752 84 225 2.6 3.5 0.00 0.00 0.00 81 1015.0
20260905034752 84 242 2.6 3.5 0.00 0.00 0.00 81 1014.9
20260905033721 84 243 2.6 3.5 0.00 0.00 0.00 80 1014.9
20260905031544 85 246 2.6 5.2 0.00 0.00 0.00 79 1015.2
20260905030531 84 257 3.5 5.2 0.00 0.00 0.00 79 1015.3
20260905025459 85 240 4.3 7.0 0.00 0.00 0.00 78 1015.2
20260905024452 85 217 6.1 7.0 0.00 0.00 0.00 78 1015.0
20260905023506 85 212 5.2 7.8 0.00 0.00 0.00 78 1015.0
20260905022512 85 211 6.1 7.8 0.00 0.00 0.00 78 1015.0
20260905021515 86 189 5.2 7.8 0.00 0.00 0.00 78 1014.9
20260905020458 86 188 5.2 7.8 0.00 0.00 0.00 77 1014.9
20260905015444 86 207 5.2 7.8 0.00 0.00 0.00 78 1014.8
20260905014423 86 210 7.0 9.6 0.00 0.00 0.00 77 1014.7
20260905013414 86 202 7.0 9.6 0.00 0.00 0.00 75 1014.8
20260905012415 86 190 7.0 9.6 0.00 0.00 0.00 78 1014.8
20260905011350 86 181 7.8 11.3 0.00 0.00 0.00 80 1014.7
20260905010320 87 181 5.2 11.3 0.00 0.00 0.00 82 1014.7
20260905005325 86 0 2.6 6.1 0.00 0.00 0.00 83 1014.5
20260905004305 86 0 1.7 4.3 0.00 0.00 0.00 83 1014.6
20260905003322 86 0 2.6 6.1 0.00 0.00 0.00 82 1014.5
20260905001210 86 180 3.5 7.8 0.00 0.00 0.00 82 1014.3
20260905000218 86 145 5.2 7.8 0.00 0.00 0.00 82 1014.3
20260904235159 86 0 3.5 8.7 0.00 0.00 0.00 81 1014.4
20260904234123 86 0 4.3 8.7 0.00 0.00 0.00 81 1014.3
20260904233100 86 0 4.3 8.7 0.00 0.00 0.00 81 1014.3
20260904232041 86 94 4.3 7.8 0.00 0.00 0.00 81 1014.1
20260904231007 86 148 4.3 8.7 0.00 0.00 0.00 83 1014.1
20260904230004 86 0 4.3 7.8 0.00 0.00 0.00 82 1013.9
20260904223906 86 134 4.3 9.6 0.00 0.00 0.00 83 1014.1
20260904220526 87 0 7.0 12.2 0.00 0.00 0.00 82 1013.1
20260904215514 87 0 7.0 13.9 0.00 0.00 0.00 82 1013.1
20260904213347 86 0 7.8 13.0 0.00 0.00 0.00 82 1013.4
20260904211219 87 169 6.1 10.4 0.00 0.00 0.00 81 1013.8
20260904210233 87 0 6.1 12.2 0.00 0.00 0.00 82 1013.7
20260904205230 86 109 7.0 13.9 0.00 0.00 0.00 82 1013.7
20260904204217 86 0 7.0 13.9 0.00 0.00 0.00 81 1013.6
20260904203214 87 136 6.1 11.3 0.00 0.00 0.00 81 1013.6
20260904202216 86 144 7.0 12.2 0.00 0.00 0.00 81 1013.6
20260904201203 87 94 7.0 12.2 0.00 0.00 0.00 81 1013.7
20260904200209 86 137 7.0 11.3 0.00 0.00 0.00 81 1013.9
20260904195145 86 0 7.0 12.2 0.00 0.00 0.00 82 1014.2
20260904194125 86 0 6.1 13.0 0.00 0.00 0.00 82 1014.3
20260904191932 87 107 6.1 12.2 0.00 0.00 0.00 81 1014.2
20260904185839 88 0 6.1 11.3 0.00 0.00 0.00 80 1014.5
20260904184839 87 108 6.1 10.4 0.00 0.00 0.00 81 1014.6
20260904183830 87 126 6.1 10.4 0.00 0.00 0.00 81 1014.7